Location: Crescent
(42.8242°N, 73.7329°W)
Time: 12:30:45
(UTC+00:00)

Tiros 1 - Pass Details

Date: 17 February 2026
Orbit: 618 x 650 km, 48.4° (Epoch: 16 March)

Event Time Altitude Azimuth Distance (km) Brightness Sun altitude
Rises 16:14:08 0° 279° (W) 2,900 10.3 33.9°
Reaches altitude 10° 16:16:34 10° 286° (WNW) 1,990 9.5 34.1°
Maximum altitude 16:20:53 41° 357° (N) 907 7.8 34.3°
Drops below altitude 10° 16:25:12 10° 68° (ENE) 1,981 9.7 34.5°
Sets 16:27:37 0° 76° (ENE) 2,886 10.5 34.6°
